Weather History for Durango, CO

Change the Weather History Date:

Sunday, September 22, 2013

  Actual Average Record
Temperature  
Mean Temperature 52 °F 56 °F  
Max Temperature 64 °F 73 °F 83 °F (1973)
Min Temperature 40 °F 40 °F 28 °F (2004)
Degree Days  
Heating Degree Days 13 9  
Month to date heating degree days 61 111  
Since 1 July heating degree days 74 140  
Cooling Degree Days 0 0  
Month to date cooling degree days 39 3  
Year to date cooling degree days 388 240  
Growing Degree Days 2 (Base 50)    
Moisture  
Dew Point 51 °F    
Average Humidity 86    
Maximum Humidity 100    
Minimum Humidity 72    
Precipitation  
Precipitation 1.71 in 0.07 in 1.71 in (2013)
Month to date precipitation 4.64 1.49  
Year to date precipitation 12.85 11.46  
Sea Level Pressure  
Sea Level Pressure 29.82 in    
Wind  
Wind Speed 6 mph (NNE)    
Max Wind Speed 45 mph    
Max Gust Speed 62 mph    
Visibility 7 miles    
Events Fog , Rain , Thunderstorm    
T = Trace of Precipitation, MM = Missing Value Source: NWS Daily Summary

Daily Weather History Graph

Daily Weather History Graph

Search for Another Location

Airport:

Trip Planner

Search our weather history database for the weather conditions in past years. The results will help you decide how hot, cold, wet, or windy it might be!

Date:

Astronomy

Sep. 22, 2013 Rise Set
Actual Time 6:59 AM MDT 7:07 PM MDT
Civil Twilight 6:33 AM MDT 7:33 PM MDT
Nautical Twilight 6:02 AM MDT 8:03 PM MDT
Astronomical Twilight 5:32 AM MDT 8:34 PM MDT
Moon 9:05 PM MDT (9/22) 10:16 AM MDT (9/22)
Length of Visible Light 13h 00m
Length of Day
12h 08m
Waning Gibbous, 88% of the Moon is Illuminated
Sep 22
Waning Gibbous
Sep 26
Last Quarter
Oct 4
New
Oct 11
First Quarter
Oct 18
Full

Hourly Weather History & Observations

Time (MDT) Temp. Windchill Dew Point Humidity Pressure Visibility Wind Dir Wind Speed Gust Speed Precip Events Conditions
12:53 AM 55.9 °F - 51.1 °F 84% 29.84 in 9.0 mi North 4.6 mph - N/A Thunderstorm Overcast
1:17 AM 55.4 °F - 51.8 °F 88% 30.06 in 10.0 mi NE 6.9 mph - 0.01 in Rain Light Rain
1:53 AM 55.0 °F - 52.0 °F 89% 29.81 in 10.0 mi NNE 6.9 mph - 0.02 in   Overcast
2:53 AM 53.1 °F - 50.0 °F 89% 29.81 in 10.0 mi Calm Calm - N/A   Partly Cloudy
3:53 AM 52.0 °F - 50.0 °F 93% 29.78 in 10.0 mi East 3.5 mph - N/A   Mostly Cloudy
4:53 AM 52.0 °F - 50.0 °F 93% 29.78 in 10.0 mi ESE 3.5 mph - N/A   Scattered Clouds
5:53 AM 52.0 °F - 50.0 °F 93% 29.78 in 10.0 mi Calm Calm - N/A   Mostly Cloudy
6:34 AM 51.8 °F - 50.0 °F 94% 29.99 in 10.0 mi ENE 4.6 mph - N/A Thunderstorm Mostly Cloudy
6:53 AM 53.1 °F - 51.1 °F 93% 29.80 in 10.0 mi WSW 9.2 mph - N/A Thunderstorm Thunderstorm
7:08 AM 53.6 °F - 50.0 °F 88% 30.02 in 9.0 mi NNE 9.2 mph - 0.03 in Rain , Thunderstorm Light Thunderstorms and Rain
7:15 AM 53.6 °F - 50.0 °F 88% 30.01 in 10.0 mi ESE 4.6 mph - 0.03 in Thunderstorm Overcast
7:33 AM 53.6 °F - 51.8 °F 94% 30.02 in 10.0 mi Variable 3.5 mph - 0.04 in Rain Light Rain
7:46 AM 53.6 °F - 51.8 °F 94% 30.01 in 10.0 mi ENE 8.1 mph - 0.04 in Thunderstorm Thunderstorm
7:53 AM 54.0 °F - 52.0 °F 93% 29.81 in 10.0 mi NE 8.1 mph - 0.04 in Thunderstorm Thunderstorm
8:46 AM 55.4 °F - 53.6 °F 94% 30.00 in 10.0 mi NE 5.8 mph - N/A   Overcast
8:53 AM 55.9 °F - 53.1 °F 90% 29.83 in 10.0 mi ENE 5.8 mph - N/A   Overcast
9:53 AM 57.9 °F - 52.0 °F 81% 29.80 in 10.0 mi East 6.9 mph - N/A   Overcast
10:53 AM 60.1 °F - 51.1 °F 72% 29.76 in 10.0 mi East 10.4 mph - N/A   Mostly Cloudy
11:48 AM 59.0 °F - 51.8 °F 77% 29.93 in 10.0 mi ESE 5.8 mph - 0.00 in Rain , Thunderstorm Light Rain
11:53 AM 59.0 °F - 53.1 °F 81% 29.74 in 9.0 mi ESE 5.8 mph - 0.01 in Rain , Thunderstorm Light Rain
12:05 PM 57.2 °F - 53.6 °F 88% 29.94 in 1.8 mi SSE 15.0 mph 23.0 mph 0.12 in Rain , Thunderstorm Heavy Thunderstorms and Rain
12:13 PM 53.6 °F - 51.8 °F 94% 29.94 in 1.0 mi SW 8.1 mph 23.0 mph 0.23 in Rain , Thunderstorm Heavy Thunderstorms and Rain
12:16 PM 53.6 °F - 51.8 °F 94% 29.94 in 2.0 mi West 10.4 mph - 0.23 in Rain , Thunderstorm Light Thunderstorms and Rain
12:37 PM 53.6 °F - 53.6 °F 100% 29.93 in 10.0 mi SE 4.6 mph - 0.30 in Rain Light Rain
12:53 PM 55.0 °F - 55.0 °F 100% 29.72 in 10.0 mi North 6.9 mph - 0.31 in Rain Light Rain
1:53 PM 63.0 °F - 53.1 °F 70% 29.63 in 10.0 mi NNW 10.4 mph - 0.00 in   Mostly Cloudy
2:13 PM 60.8 °F - 51.8 °F 72% 29.78 in 10.0 mi East 11.5 mph 21.9 mph N/A Thunderstorm Mostly Cloudy
2:38 PM 55.4 °F - 53.6 °F 94% 29.83 in 0.2 mi NW 17.3 mph 62.1 mph N/A Fog , Rain , Thunderstorm Heavy Thunderstorms and Rain
2:49 PM 50.0 °F - 50.0 °F 100% 29.81 in 0.5 mi NW 23.0 mph 35.7 mph N/A Fog , Rain , Thunderstorm Heavy Thunderstorms and Rain
2:53 PM 50.0 °F - 50.0 °F 100% 29.67 in 0.5 mi North 17.3 mph 29.9 mph N/A Fog , Rain , Thunderstorm Heavy Thunderstorms and Rain
2:56 PM 50.0 °F - - N/A% 29.78 in 1.0 mi North 19.6 mph 29.9 mph 0.01 in Rain , Thunderstorm Heavy Thunderstorms and Rain
3:01 PM 51.8 °F - - N/A% 29.78 in 2.0 mi North 10.4 mph 26.5 mph 0.01 in Rain , Thunderstorm Light Thunderstorms and Rain
3:08 PM 53.6 °F - - N/A% 29.78 in 10.0 mi NE 6.9 mph 16.1 mph 0.01 in Thunderstorm Thunderstorm
3:15 PM 53.6 °F - - N/A% 29.81 in 10.0 mi East 6.9 mph - 0.01 in Thunderstorm Thunderstorm
3:36 PM 53.6 °F - - N/A% 29.81 in 10.0 mi East 6.9 mph - 0.01 in   Overcast
3:53 PM 54.0 °F - - N/A% 29.65 in 10.0 mi East 10.4 mph - 0.01 in   Overcast
4:41 PM 53.6 °F - - N/A% 29.73 in 10.0 mi ENE 15.0 mph - 0.01 in Rain , Thunderstorm Light Rain
4:53 PM 52.0 °F - - N/A% 29.59 in 10.0 mi NNW 11.5 mph - 0.01 in Thunderstorm Mostly Cloudy
5:01 PM 51.8 °F - - N/A% 29.77 in 1.5 mi WNW 44.9 mph 54.1 mph 0.10 in Rain , Thunderstorm Light Thunderstorms and Rain
5:03 PM 48.2 °F - - N/A% 29.78 in 0.5 mi West 34.5 mph 54.1 mph 0.23 in Rain , Thunderstorm Heavy Thunderstorms and Rain
5:06 PM 42.8 °F 32.7 °F - N/A% 29.78 in 0.2 mi WNW 27.6 mph 54.1 mph 0.41 in Rain , Thunderstorm Heavy Thunderstorms and Rain
5:10 PM 42.8 °F 32.3 °F - N/A% 29.78 in 0.2 mi West 29.9 mph 54.1 mph 0.48 in Rain , Thunderstorm Heavy Thunderstorms and Rain
5:14 PM 44.6 °F 35.9 °F - N/A% 29.80 in 1.0 mi West 23.0 mph 42.6 mph 0.50 in Rain , Thunderstorm Thunderstorms and Rain
5:16 PM 44.6 °F 35.7 °F - N/A% 29.82 in 2.0 mi West 24.2 mph 42.6 mph 0.51 in Rain , Thunderstorm Thunderstorms and Rain
5:32 PM 46.4 °F 38.1 °F - N/A% 29.83 in 5.0 mi WNW 24.2 mph 35.7 mph 0.57 in Rain Rain
5:43 PM 46.4 °F 38.3 °F - N/A% 29.84 in 7.0 mi WNW 23.0 mph 29.9 mph 0.58 in Rain , Thunderstorm Light Rain
5:53 PM 48.0 °F - - N/A% 29.73 in 6.0 mi West 23.0 mph 35.7 mph 0.59 in Rain , Thunderstorm Light Rain
6:06 PM 48.2 °F - - N/A% 29.85 in 6.0 mi West 21.9 mph 36.8 mph 0.02 in Rain , Thunderstorm Light Thunderstorms and Rain
6:18 PM 50.0 °F - - N/A% 29.84 in 4.0 mi West 12.7 mph 43.7 mph 0.04 in Rain Light Rain
6:53 PM 46.9 °F - - N/A% 29.70 in 10.0 mi North 8.1 mph - 0.04 in   Mostly Cloudy
7:53 PM 45.0 °F 43.5 °F - N/A% 29.73 in 10.0 mi ESE 3.5 mph - 0.00 in   Overcast
8:53 PM 44.1 °F - - N/A% 29.74 in 10.0 mi Calm Calm - N/A   Scattered Clouds
9:53 PM 44.1 °F - 44.1 °F 100% 29.75 in 10.0 mi Calm Calm - N/A   Mostly Cloudy
10:53 PM 42.1 °F 40.2 °F 42.1 °F 100% 29.77 in 10.0 mi NW 3.5 mph - N/A   Mostly Cloudy
11:53 PM 41.0 °F - 41.0 °F 100% 29.80 in 10.0 mi Calm Calm - N/A   Clear